| time (UTC) | temp C | wind direction | speed KPH | gust KPH | rain 1hr cm | rain 24hr cm | rain mn cm | humidity % | barometer mb |
| 20260504030015 | -17 | 227 | 0.0 | 0.0 | 0.00 | 0.00 | 0.00 | 1012.7 | |
| 20260504024507 | -17 | 227 | 0.0 | 0.0 | 0.00 | 0.00 | 0.00 | 1013.0 | |
| 20260504023007 | -17 | 227 | 0.0 | 0.0 | 0.00 | 0.00 | 0.00 | 1013.0 | |
| 20260504021600 | -17 | 227 | 0.0 | 0.0 | 0.00 | 0.00 | 0.00 | 1012.9 | |
| 20260504020105 | -17 | 227 | 0.0 | 0.0 | 0.00 | 0.00 | 0.00 | 1013.0 | |
| 20260504014551 | -17 | 227 | 0.0 | 0.0 | 0.00 | 0.00 | 0.00 | 1012.9 | |
| 20260504013051 | -17 | 227 | 0.0 | 0.0 | 0.00 | 0.00 | 0.00 | 1012.8 | |
| 20260504011541 | -17 | 227 | 0.0 | 0.0 | 0.00 | 0.00 | 0.00 | 1012.6 | |
| 20260504010045 | -17 | 227 | 0.0 | 0.0 | 0.00 | 0.00 | 0.00 | 1012.7 | |
| 20260504004541 | -17 | 227 | 0.0 | 0.0 | 0.00 | 0.00 | 0.00 | 1012.7 | |
| 20260504003030 | -17 | 227 | 0.0 | 0.0 | 0.00 | 0.00 | 0.00 | 1012.6 | |
| 20260504001532 | -17 | 227 | 0.0 | 6.4 | 0.00 | 0.00 | 0.00 | 1012.6 | |
| 20260504000020 | -17 | 281 | 1.6 | 8.0 | 0.00 | 0.00 | 0.00 | 1012.5 | |
| 20260503234518 | -17 | 252 | 0.0 | 8.0 | 0.00 | 0.00 | 0.00 | 1012.5 | |
| 20260503233012 | -17 | 247 | 1.6 | 6.4 | 0.00 | 0.00 | 0.00 | 1012.5 | |
| 20260503231507 | -17 | 306 | 3.2 | 12.9 | 0.00 | 0.00 | 0.00 | 1012.5 | |
| 20260503230002 | -17 | 297 | 1.6 | 20.9 | 0.00 | 0.00 | 0.00 | 1012.5 | |
| 20260503224602 | -17 | 248 | 6.4 | 17.7 | 0.00 | 0.00 | 0.00 | 1012.6 | |
| 20260503223109 | -17 | 206 | 3.2 | 17.7 | 0.00 | 0.00 | 0.00 | 1012.7 | |
| 20260503221553 | -17 | 95 | 6.4 | 19.3 | 0.00 | 0.00 | 0.00 | 1012.6 | |
| 20260503220047 | -17 | 261 | 3.2 | 14.5 | 0.00 | 0.00 | 0.00 | 1012.7 | |
| 20260503214552 | -17 | 28 | 1.6 | 12.9 | 0.00 | 0.00 | 0.00 | 1012.6 | |
| 20260503213036 | -17 | 74 | 4.8 | 14.5 | 0.00 | 0.00 | 0.00 | 1012.4 | |
| 20260503211532 | -17 | 284 | 4.8 | 12.9 | 0.00 | 0.00 | 0.00 | 1012.5 | |
| 20260503210027 | -17 | 348 | 3.2 | 14.5 | 0.00 | 0.00 | 0.00 | 1012.7 | |
| 20260503204528 | -17 | 271 | 6.4 | 17.7 | 0.00 | 0.00 | 0.00 | 1012.8 | |
| 20260503203019 | -17 | 273 | 8.0 | 24.1 | 0.00 | 0.00 | 0.00 | 1012.9 | |
| 20260503201515 | -17 | 214 | 4.8 | 19.3 | 0.00 | 0.00 | 0.00 | 1013.1 | |
| 20260503200010 | -17 | 237 | 3.2 | 12.9 | 0.00 | 0.00 | 0.00 | 1013.3 | |
| 20260503194506 | -17 | 306 | 6.4 | 17.7 | 0.00 | 0.00 | 0.00 | 1013.5 | |
| 20260503193000 | -17 | 234 | 6.4 | 14.5 | 0.00 | 0.00 | 0.00 | 1013.7 | |
| 20260503191604 | -17 | 188 | 3.2 | 16.1 | 0.00 | 0.00 | 0.00 | 1014.0 | |
| 20260503190052 | -17 | 277 | 8.0 | 16.1 | 0.00 | 0.00 | 0.00 | 1014.1 | |
| 20260503184548 | -17 | 286 | 4.8 | 17.7 | 0.00 | 0.00 | 0.00 | 1014.3 | |
| 20260503183052 | -17 | 17 | 3.2 | 19.3 | 0.00 | 0.00 | 0.00 | 1014.4 | |
| 20260503181556 | -17 | 168 | 3.2 | 17.7 | 0.00 | 0.00 | 0.00 | 1014.7 | |
| 20260503180045 | -17 | 274 | 4.8 | 16.1 | 0.00 | 0.00 | 0.00 | 1014.9 | |
| 20260503174530 | -17 | 324 | 8.0 | 16.1 | 0.00 | 0.00 | 0.00 | 1015.0 | |
| 20260503173026 | -17 | 330 | 6.4 | 20.9 | 0.00 | 0.00 | 0.00 | 1015.2 | |
| 20260503171525 | -17 | 144 | 3.2 | 14.5 | 0.00 | 0.00 | 0.00 | 1015.2 | |
| 20260503081545 | -17 | 296 | 0.0 | 0.0 | 0.00 | 0.03 | 0.00 | 1015.3 | |
| 20260503071527 | -17 | 296 | 0.0 | 0.0 | 0.00 | 0.03 | 0.00 | 1015.1 | |
| 20260503054501 | -17 | 296 | 0.0 | 0.0 | 0.00 | 0.03 | 0.00 | 1015.3 | |
| 20260503053057 | -17 | 296 | 0.0 | 0.0 | 0.00 | 0.03 | 0.00 | 1015.3 | |
| 20260503051553 | -17 | 296 | 0.0 | 0.0 | 0.00 | 0.03 | 0.00 | 1015.4 | |
| 20260503050048 | -17 | 296 | 0.0 | 0.0 | 0.00 | 0.03 | 0.00 | 1015.5 | |
| 20260503044600 | -17 | 296 | 0.0 | 0.0 | 0.00 | 0.03 | 0.00 | 1015.5 | |
| 20260503043041 | -17 | 296 | 0.0 | 0.0 | 0.00 | 0.03 | 0.00 | 1015.6 | |
| 20260503041537 | -17 | 296 | 0.0 | 0.0 | 0.00 | 0.03 | 0.00 | 1015.6 | |
| 20260503040035 | -17 | 296 | 0.0 | 0.0 | 0.00 | 0.03 | 0.00 | 1015.6 | |
| 20260503034526 | -17 | 296 | 0.0 | 0.0 | 0.00 | 0.03 | 0.03 | 1015.6 | |
| 20260503033022 | -17 | 296 | 0.0 | 0.0 | 0.00 | 0.03 | 0.03 | 1015.6 | |
| 20260503031517 | -17 | 296 | 0.0 | 0.0 | 0.00 | 0.03 | 0.03 | 1015.6 |